When you browse on this site, cookies collect data to enhance your experience and personalize the content and advertising you see.
Visit our Privacy Policy to learn more. By continuing to use the site, you agree to this use of cookies and data.
  • In Romania
  • List of Countries
  • For 7 days
  • Water Temperature
  • Satellite Maps
  • Weather Map
  • Weather Widgets
  • user-avatar
    Login

    Hourly Weather Atabey

    Today, 21 March, Thursday

    Time Temperature Precipitation Wind Pressure Humidity
    00:00 +8°C° 0 mm 2 mps 659 mmHg 66%
    01:00 +8°C° 0 mm 2 mps 659 mmHg 68%
    02:00 +7°C° 0 mm 2 mps 659 mmHg 72%
    03:00 +7°C° 0 mm 2 mps 659 mmHg 74%
    04:00 +6°C° 0 mm 2 mps 659 mmHg 75%
    05:00 +5°C° 0 mm 3 mps 659 mmHg 77%
    06:00 +5°C° 0 mm 3 mps 659 mmHg 73%
    07:00 +7°C° 0 mm 3 mps 660 mmHg 70%
    08:00 +8°C° 0 mm 3 mps 660 mmHg 67%
    09:00 +9°C° 0 mm 3 mps 660 mmHg 59%
    10:00 +10°C° 0 mm 3 mps 661 mmHg 52%
    11:00 +12°C° 0 mm 3 mps 661 mmHg 45%
    12:00 +12°C° 0 mm 4 mps 661 mmHg 43%
    13:00 +13°C° 0 mm 4 mps 661 mmHg 41%
    14:00 +13°C° 0 mm 4 mps 661 mmHg 40%
    15:00 +13°C° 0 mm 4 mps 660 mmHg 40%
    16:00 +13°C° 0 mm 4 mps 660 mmHg 40%
    17:00 +12°C° 0 mm 4 mps 660 mmHg 40%
    18:00 +11°C° 0 mm 4 mps 660 mmHg 42%
    19:00 +10°C° 0 mm 3 mps 660 mmHg 43%
    20:00 +8°C° 0 mm 3 mps 660 mmHg 45%
    21:00 +8°C° 0 mm 3 mps 660 mmHg 45%
    22:00 +7°C° 0 mm 3 mps 660 mmHg 46%
    23:00 +6°C° 0 mm 2 mps 661 mmHg 47%

    Tomorrow, 22 March, Friday

    Time Temperature Precipitation Wind Pressure Humidity
    00:00 +6°C° 0 mm 2 mps 661 mmHg 51%
    01:00 +5°C° 0 mm 2 mps 661 mmHg 55%
    02:00 +5°C° 0 mm 2 mps 661 mmHg 59%
    03:00 +3°C° 0 mm 3 mps 660 mmHg 64%
    04:00 +3°C° 0 mm 3 mps 660 mmHg 69%
    05:00 +2°C° 0 mm 3 mps 660 mmHg 74%
    06:00 +3°C° 0 mm 3 mps 660 mmHg 73%
    07:00 +4°C° 0 mm 3 mps 661 mmHg 72%
    08:00 +4°C° 0 mm 3 mps 661 mmHg 71%
    09:00 +7°C° 0 mm 3 mps 661 mmHg 63%
    10:00 +8°C° 0 mm 3 mps 661 mmHg 55%
    11:00 +10°C° 0 mm 3 mps 661 mmHg 47%
    12:00 +11°C° 0 mm 3 mps 661 mmHg 43%
    13:00 +11°C° 0 mm 3 mps 660 mmHg 40%
    14:00 +12°C° 0 mm 3 mps 660 mmHg 36%
    15:00 +12°C° 0 mm 3 mps 660 mmHg 37%
    16:00 +12°C° 0 mm 3 mps 659 mmHg 37%
    17:00 +12°C° 0 mm 3 mps 659 mmHg 38%
    18:00 +10°C° 0 mm 3 mps 659 mmHg 42%
    19:00 +9°C° 0 mm 3 mps 659 mmHg 47%
    20:00 +8°C° 0 mm 3 mps 659 mmHg 52%
    21:00 +7°C° 0 mm 2 mps 659 mmHg 55%
    22:00 +7°C° 0 mm 2 mps 659 mmHg 58%
    23:00 +6°C° 0 mm 2 mps 659 mmHg 61%

    Day after tomorrow, 23 March, Saturday

    Time Temperature Precipitation Wind Pressure Humidity
    00:00 +6°C° 0 mm 2 mps 659 mmHg 63%
    01:00 +5°C° 0 mm 2 mps 659 mmHg 66%
    02:00 +5°C° 0 mm 2 mps 658 mmHg 68%
    03:00 +4°C° 0 mm 2 mps 658 mmHg 70%
    04:00 +4°C° 0 mm 2 mps 658 mmHg 72%
    05:00 +4°C° 0 mm 2 mps 658 mmHg 74%
    06:00 +4°C° 0 mm 2 mps 658 mmHg 71%
    07:00 +5°C° 0 mm 2 mps 658 mmHg 69%
    08:00 +6°C° 0 mm 2 mps 658 mmHg 66%
    09:00 +7°C° 0 mm 2 mps 658 mmHg 60%
    10:00 +8°C° 0 mm 2 mps 658 mmHg 54%
    11:00 +10°C° 0 mm 2 mps 658 mmHg 47%
    12:00 +10°C° 0 mm 3 mps 658 mmHg 45%
    13:00 +11°C° 0 mm 3 mps 658 mmHg 42%
    14:00 +12°C° 0 mm 3 mps 657 mmHg 39%
    15:00 +12°C° 0 mm 3 mps 657 mmHg 40%
    16:00 +11°C° 0 mm 4 mps 657 mmHg 40%
    17:00 +11°C° 0 mm 4 mps 657 mmHg 41%
    18:00 +10°C° 0 mm 4 mps 657 mmHg 47%
    19:00 +7°C° 0 mm 4 mps 657 mmHg 53%
    20:00 +6°C° 0 mm 4 mps 657 mmHg 59%
    21:00 +5°C° 0 mm 3 mps 657 mmHg 63%
    22:00 +4°C° 0 mm 3 mps 657 mmHg 67%
    23:00 +4°C° 0 mm 2 mps 657 mmHg 71%

    24 March, Sunday

    Time Temperature Precipitation Wind Pressure Humidity
    00:00 +2°C° 0 mm 3 mps 657 mmHg 72%
    01:00 +2°C° 0 mm 3 mps 656 mmHg 73%
    02:00 +1°C° 0 mm 3 mps 656 mmHg 74%
    03:00 0°C° 0 mm 3 mps 656 mmHg 76%
    04:00 0°C° 0 mm 3 mps 656 mmHg 78%
    05:00 -1°C° 0 mm 3 mps 656 mmHg 80%
    06:00 0°C° 0 mm 3 mps 656 mmHg 72%
    07:00 -1°C° 0 mm 4 mps 656 mmHg 64%
    08:00 -1°C° 0 mm 4 mps 656 mmHg 56%
    09:00 0°C° 0 mm 5 mps 657 mmHg 50%
    10:00 +2°C° 0 mm 5 mps 657 mmHg 44%
    11:00 +3°C° 0 mm 6 mps 657 mmHg 39%
    12:00 +3°C° 0 mm 6 mps 656 mmHg 37%
    13:00 +4°C° 0 mm 6 mps 656 mmHg 35%
    14:00 +5°C° 0 mm 6 mps 656 mmHg 33%
    15:00 +4°C° 0 mm 6 mps 655 mmHg 34%
    16:00 +4°C° 0 mm 6 mps 655 mmHg 34%
    17:00 +4°C° 0 mm 6 mps 655 mmHg 35%
    18:00 +3°C° 0 mm 5 mps 655 mmHg 39%
    19:00 +2°C° 0 mm 5 mps 656 mmHg 43%
    20:00 +1°C° 0 mm 4 mps 656 mmHg 47%
    21:00 0°C° 0 mm 4 mps 656 mmHg 50%
    22:00 0°C° 0 mm 4 mps 656 mmHg 54%
    23:00 0°C° 0 mm 3 mps 656 mmHg 57%

    25 March, Monday

    Time Temperature Precipitation Wind Pressure Humidity
    00:00 0°C° 0 mm 3 mps 656 mmHg 60%
    01:00 -1°C° 0 mm 3 mps 656 mmHg 62%
    02:00 -1°C° 0 mm 3 mps 656 mmHg 65%
    03:00 -1°C° 0 mm 3 mps 656 mmHg 66%
    04:00 -2°C° 0 mm 3 mps 656 mmHg 67%
    05:00 -2°C° 0 mm 3 mps 656 mmHg 68%
    06:00 -1°C° 0 mm 3 mps 656 mmHg 63%
    07:00 0°C° 0 mm 3 mps 657 mmHg 59%
    08:00 +1°C° 0 mm 3 mps 657 mmHg 54%
    09:00 +1°C° 0 mm 4 mps 657 mmHg 47%
    10:00 +4°C° 0 mm 4 mps 657 mmHg 39%
    11:00 +6°C° 0 mm 4 mps 657 mmHg 32%
    12:00 +7°C° 0 mm 4 mps 656 mmHg 31%
    13:00 +9°C° 0 mm 3 mps 656 mmHg 29%
    14:00 +9°C° 0 mm 3 mps 656 mmHg 27%
    15:00 +9°C° 0 mm 3 mps 656 mmHg 28%
    16:00 +9°C° 0 mm 3 mps 655 mmHg 29%
    17:00 +9°C° 0 mm 3 mps 655 mmHg 30%
    18:00 +8°C° 0 mm 3 mps 655 mmHg 34%
    19:00 +7°C° 0 mm 2 mps 655 mmHg 37%
    20:00 +5°C° 0 mm 2 mps 655 mmHg 41%
    21:00 +5°C° 0 mm 2 mps 655 mmHg 42%
    22:00 +4°C° 0 mm 2 mps 654 mmHg 44%
    23:00 +5°C° 0 mm 1 mps 654 mmHg 46%

    26 March, Tuesday

    Time Temperature Precipitation Wind Pressure Humidity
    00:00 +4°C° 0 mm 1 mps 654 mmHg 47%
    01:00 +4°C° 0 mm 1 mps 654 mmHg 48%
    02:00 +3°C° 0 mm 1 mps 653 mmHg 49%
    03:00 +3°C° 0 mm 1 mps 653 mmHg 50%
    04:00 +3°C° 0 mm 1 mps 653 mmHg 50%
    05:00 +3°C° 0 mm 1 mps 653 mmHg 51%
    06:00 +4°C° 0 mm 1 mps 653 mmHg 46%
    07:00 +6°C° 0 mm 1 mps 654 mmHg 41%
    08:00 +7°C° 0 mm 0 mps 654 mmHg 36%
    09:00 +8°C° 0 mm 0 mps 654 mmHg 34%
    10:00 +10°C° 0 mm 0 mps 654 mmHg 32%
    11:00 +11°C° 0 mm 0 mps 654 mmHg 29%
    12:00 +13°C° 0 mm 1 mps 654 mmHg 28%
    13:00 +13°C° 0 mm 1 mps 653 mmHg 27%
    14:00 +14°C° 0 mm 2 mps 653 mmHg 26%
    15:00 +14°C° 0 mm 2 mps 653 mmHg 28%
    16:00 +13°C° 0 mm 3 mps 653 mmHg 30%
    17:00 +12°C° 0 mm 3 mps 653 mmHg 32%
    18:00 +11°C° 0 mm 3 mps 653 mmHg 39%
    19:00 +10°C° 0 mm 3 mps 653 mmHg 45%
    20:00 +8°C° 0 mm 3 mps 652 mmHg 52%
    21:00 +7°C° 0 mm 2 mps 652 mmHg 56%
    22:00 +6°C° 0 mm 2 mps 652 mmHg 60%
    23:00 +5°C° 0 mm 2 mps 652 mmHg 64%
    Show more